FM-6 (39360 NORAD) Tracking and Keplerian Element Data

This shows tracking and keplerian element data for the satellite.

Feedback or suggestion? Click here.




ElementValue
Catalog39360
NameFM-6
Epoch Orbit4106
Epoch Day34.73187942
Epoch Year2025
RAAN330.0943
Inclination0.005
Eccentricity5.23E-05
Argument of Perigee261.7804
Mean Anonmoly49.5693
Mean Motion1.00270777
Decay Rate-1.2E-07
L11 39360U 13058A 25034.73187942 -.00000012 00000+0 00000+0 0 9995
L22 39360 0.0050 330.0943 0000523 261.7804 49.5693 1.00270777 41066



Live tracking and technical data element details for FM-6 (NORAD 39360). FM-6 can be tracked NOW for your location showing map with azimuth and elevation plus other details from your city location.







IsCatalogInMostPopularTable: catalog: 39360, numindb: 529
Update: records affected: 1



GetName: 39360 FM-6

Hit Count: updated at: Thu, 15 May 2025 10:02:13 GMT